Location: Beaurecueil
(43.5122°N, 5.5450°E)
Time: 04:21:10
(UTC+00:00)

Meteor 1-21 - Pass Details

Date: 18 June 2021
Orbit: 846 x 885 km, 81.2° (Epoch: 03 August)

Event Time Altitude Azimuth Distance (km) Brightness Sun altitude
Rises 19:50:39 0° 181° (S) 3,427 7.0 -5.0°
Reaches altitude 10° 19:53:05 10° 179° (S) 2,489 6.3 -5.4°
Maximum altitude 19:58:41 71° 97° (E) 906 4.2 -6.1°
Drops below altitude 10° 20:04:17 10° 15° (NNE) 2,485 7.0 -6.9°
Sets 20:06:43 0° 13° (NNE) 3,422 7.8 -7.2°
